[[{"header":{"parameterUnit":"m.s-1","parameterCategory":2,"la1":30.2991,"la2":30.254,"lo1":-89.0895,"lo2":-89.0444,"dy":0.0017,"dx":0.0017,"nx":28,"ny":28,"refTime":"2024-04-30T03:00:00:Z","depth":"0","parameterNumber":2,"parameterNumberName":"U-component_of_CURRENTS"},"data":[0,0,0,0,0,0,0,0,0,0,0,0,0,0,0,0,0,0,0,0,0,0,0,0,0,0,0,0,0,0,0,0,0,0,0,0,0,0,0,0,0,0,0,0,0,0,0,0,0,0,0,0,0,0,0,0,0,0,0.4884,0.4885,0,0.4879,0.4878,0.4877,0.4837,0.4836,0.4836,0.4836,0.4809,0.4809,0.4808,0,0,0,0,0,0,0,0,0,0,0,0,0,0.4816,0.4817,0.4884,0.4885,0.4885,0.4879,0.4878,0.4877,0.4837,0.4836,0.4836,0.4835,0.4809,0.4809,0.4808,0,0,0,0,0,0,0,0,0,0,0,0,0,0.4825,0.4817,0.4884,0.4869,0.4868,0.4879,0.4878,0.4877,0.4837,0.4836,0.4836,0.4835,0.4809,0.4809,0.4808,0.4816,0,0,0.4807,0.4806,0,0,0,0,0,0,0,0,0.4824,0.4827,0.4871,0.4871,0.487,0.4864,0.4845,0.4858,0.4837,0.4841,0.4836,0.4835,0.4831,0.4828,0.4819,0.4815,0.4814,0.4807,0.4806,0.4806,0.4806,0,0,0,0,0,0,0,0.4824,0.4826,0.4875,0.4872,0.4871,0.4849,0.4849,0.4846,0.4833,0.4841,0.484,0.485,0.4829,0.4819,0.4818,0.4813,0.4807,0.4806,0.4806,0.4806,0.4924,0.4927,0,0,0,0,0,0,0.4842,0.4826,0.4875,0.4875,0.4853,0.4851,0.4851,0.4861,0.4834,0.4831,0.4851,0.4849,0.4821,0.4819,0.4817,0.4864,0.4806,0.4806,0.4805,0.492,0.4924,0.4928,0,0,0,0,0,0,0.484,0.4846,0.4876,0.4856,0.4859,0.4854,0.4864,0.4861,0.4861,0.4843,0.4838,0.4857,0.482,0.4818,0.4836,0.4861,0.4805,0.4805,0.4916,0.4921,0.4926,0.4934,0,0,0,0,0,0,0.4838,0.4846,0.4853,0.4858,0.4861,0.4902,0.4865,0.4861,0.4872,0.4869,0.4847,0.4843,0.4819,0.4837,0.4836,0.486,0.4804,0.4912,0.4918,0.4925,0.4929,0.4939,0.4947,0,0,0,0,0,0.4836,0.4834,0.4853,0.4859,0.4873,0.4904,0.4904,0.4892,0.4873,0.4886,0.4873,0.4844,0.4879,0.4839,0.4836,0.4861,0.4909,0.4917,0.4924,0.4925,0.4937,0.4946,0,0,0,0,0,0,0.4772,0.4831,0.4851,0.4859,0.4899,0.49,0.4899,0.4904,0.4901,0.4894,0.4867,0.4863,0.4899,0.4894,0.4851,0.4926,0.4898,0.4906,0.49,0.4911,0.492,0.4934,0.4804,0,0,0,0,0,0.4777,0.4809,0.4859,0.4865,0.4888,0.4902,0.4909,0.4918,0.4922,0.4918,0.4905,0.491,0.493,0.4929,0.4947,0.4967,0.4985,0.4996,0.5005,0.5011,0.503,0.5108,0.5123,0.4954,0.4954,0.4953,0,0,0.4751,0.4789,0.4802,0.4859,0.4876,0.4903,0.4902,0.4928,0.4943,0.4918,0.4919,0.4939,0.495,0.498,0.4996,0.4971,0.5065,0.5021,0.5026,0.5042,0.5117,0.5133,0.5147,0.4959,0.4958,0.4957,0,0,0.4712,0.4757,0.4775,0.4821,0.4881,0.4903,0.4922,0.4951,0.4961,0.4985,0.4983,0.503,0.5027,0.5055,0.5064,0.5142,0.5119,0.5148,0.518,0.5254,0.5268,0.528,0.5288,0.5301,0.5139,0.5139,0.5139,0,0.4679,0.4715,0.478,0.4812,0.4845,0.4907,0.493,0.4954,0.4984,0.5008,0.4994,0.5066,0.507,0.5132,0.5156,0.5158,0.5172,0.5121,0.5261,0.5274,0.5286,0.5292,0.5307,0.514,0.514,0.514,0.514,0,0.4664,0.47,0.4712,0.4786,0.4828,0.4866,0.4932,0.4972,0.4996,0.5026,0.5106,0.5136,0.5187,0.5201,0.5186,0.5288,0.5258,0.5265,0.5218,0.5303,0.5305,0.5319,0.5142,0.5142,0.5141,0.5141,0,0,0.4563,0.4684,0.4681,0.4733,0.483,0.4864,0.4915,0.4993,0.5037,0.509,0.5149,0.5213,0.5259,0.5281,0.5301,0.5357,0.5436,0.534,0.5343,0.5318,0.5553,0.5354,0.535,0.5457,0.5461,0.5464,0.5503,0,0.4533,0.4594,0.4657,0.4712,0.4763,0.4855,0.4902,0.4984,0.5048,0.5122,0.5207,0.5274,0.5281,0.5318,0.5384,0.5435,0.5482,0.5422,0.5502,0.5503,0.5293,0.5364,0.5146,0.5148,0.5517,0.5519,0.5521,0,0.4499,0.4554,0.4607,0.4731,0.4757,0.4791,0.4913,0.4966,0.5095,0.515,0.5255,0.5321,0.5432,0.5427,0.5562,0.5517,0.5547,0.5574,0.5576,0.5403,0.5333,0.5136,0.516,0.5088,0.5543,0.5541,0.554,0,0.4432,0.4521,0.457,0.461,0.4744,0.4779,0.4845,0.4969,0.5025,0.5178,0.5237,0.5385,0.5455,0.555,0.5619,0.5596,0.5744,0.572,0.5569,0.5552,0.5391,0.5353,0.5332,0.583,0.5829,0.5829,0.5829,0,0.4403,0.4437,0.4543,0.4576,0.4629,0.4739,0.4804,0.4899,0.5028,0.5094,0.5248,0.5325,0.5494,0.5593,0.5647,0.5641,0.5776,0.5586,0.5565,0.5381,0.5344,0.5292,0.5262,0.5831,0.583,0.583,0.583,0,0.4329,0.4406,0.4463,0.4576,0.4606,0.464,0.4752,0.4803,0.4944,0.5037,0.5089,0.5289,0.5417,0.5556,0.5702,0.5637,0.5517,0.5652,0.5385,0.533,0.5027,0.5005,0.4759,0.4627,0.545,0.5445,0.5442,0,0.4303,0.4329,0.4423,0.4441,0.4484,0.4546,0.4588,0.4736,0.4783,0.4994,0.5021,0.5207,0.5285,0.5409,0.5396,0.5431,0.5389,0.52,0.5115,0.4981,0.4947,0.4779,0.4677,0.4905,0.4898,0.4891,0.4886,0,0.4235,0.4264,0.4306,0.4352,0.4385,0.4411,0.4477,0.4503,0.4671,0.4746,0.4859,0.4948,0.507,0.4998,0.5034,0.5037,0.4926,0.5057,0.5034,0.4601,0.431,0.4182,0.4881,0.4829,0.4835,0.4839,0.4842,0.4844,0.4158,0.4164,0.4221,0.4231,0.4271,0.426,0.42,0.4272,0.4309,0.4335,0.4566,0.4561,0.4638,0.4639,0.4625,0.447,0.4482,0.4343,0.4352,0.4214,0.3993,0.4509,0.4357,0.4359,0.4362,0.4364,0.4366,0,0.4021,0.4054,0.4094,0.4092,0.4038,0.4109,0.4097,0.3979,0.3904,0.4014,0.4035,0.4056,0.3983,0.4081,0.4009,0.3832,0.3683,0.3759,0.3556,0.3514,0.4095,0.3982,0.36,0.36,0.36,0.36,0.3601,0.3601,0.396,0.3929,0.3944,0.3829,0.3814,0.3646,0.357,0.3447,0.344,0.3342,0.3319,0.3401,0.3654,0.3688,0.358,0.349,0.3302,0.3058,0.3123,0.3646,0.3705,0.376,0.3651,0.3206,0.3206,0.2396,0.239,0.2386]},{"header":{"parameterUnit":"m.s-1","parameterCategory":2,"la1":30.2991,"la2":30.254,"lo1":-89.0895,"lo2":-89.0444,"dy":0.0017,"dx":0.0017,"nx":28,"ny":28,"refTime":"2024-04-30T03:00:00:Z","depth":"0","parameterNumber":3,"parameterNumberName":"V-component_of_CURRENTS"},"data":[0,0,0,0,0,0,0,0,0,0,0,0,0,0,0,0,0,0,0,0,0,0,0,0,0,0,0,0,0,0,0,0,0,0,0,0,0,0,0,0,0,0,0,0,0,0,0,0,0,0,0,0,0,0,0,0,0,0,-0.0085,-0.0085,0,-0.0125,-0.0125,-0.0126,-0.013,-0.0129,-0.0129,-0.0128,-0.0198,-0.02,-0.0203,0,0,0,0,0,0,0,0,0,0,0,0,0,-0.0099,-0.0098,-0.0085,-0.0085,-0.0085,-0.0124,-0.0125,-0.0126,-0.013,-0.0129,-0.0129,-0.0128,-0.0197,-0.02,-0.0203,0,0,0,0,0,0,0,0,0,0,0,0,0,-0.0113,-0.0098,-0.0085,-0.0091,-0.0092,-0.0124,-0.0125,-0.0126,-0.013,-0.0129,-0.0129,-0.0128,-0.0196,-0.02,-0.0203,-0.0243,0,0,-0.0214,-0.0216,0,0,0,0,0,0,0,0,-0.0112,-0.0113,-0.009,-0.009,-0.0091,-0.012,-0.0156,-0.0166,-0.0131,-0.0118,-0.0128,-0.0127,-0.0174,-0.0179,-0.0191,-0.0247,-0.025,-0.0215,-0.0217,-0.0218,-0.022,0,0,0,0,0,0,0,-0.0111,-0.0111,-0.0103,-0.009,-0.0091,-0.0121,-0.0121,-0.0158,-0.0152,-0.0119,-0.0119,-0.012,-0.0175,-0.0188,-0.0193,-0.0251,-0.0215,-0.0218,-0.022,-0.0221,-0.0343,-0.0344,0,0,0,0,0,0,-0.0098,-0.011,-0.0101,-0.0104,-0.0097,-0.0121,-0.0121,-0.0113,-0.0151,-0.0156,-0.0121,-0.012,-0.0182,-0.0189,-0.0195,-0.0215,-0.0218,-0.0222,-0.0224,-0.0342,-0.0343,-0.0344,0,0,0,0,0,0,-0.0098,-0.0097,-0.01,-0.0107,-0.0109,-0.0121,-0.0112,-0.0114,-0.0124,-0.0152,-0.0157,-0.0127,-0.0182,-0.019,-0.0218,-0.0219,-0.0223,-0.0227,-0.034,-0.0342,-0.0344,-0.0275,0,0,0,0,0,0,-0.0098,-0.0096,-0.0089,-0.0105,-0.0108,-0.0123,-0.0113,-0.0116,-0.0125,-0.0125,-0.016,-0.0165,-0.0182,-0.0212,-0.0222,-0.0224,-0.023,-0.0339,-0.0341,-0.0343,-0.0276,-0.0274,-0.0272,0,0,0,0,0,-0.0099,-0.0085,-0.0088,-0.0087,-0.0096,-0.0123,-0.0128,-0.0135,-0.0126,-0.0139,-0.015,-0.0164,-0.0232,-0.0216,-0.0226,-0.023,-0.0338,-0.0341,-0.0343,-0.0276,-0.0274,-0.0272,0,0,0,0,0,0,-0.0074,-0.0084,-0.0088,-0.0074,-0.0101,-0.0123,-0.0126,-0.0137,-0.0156,-0.0149,-0.0172,-0.018,-0.0205,-0.0237,-0.0219,-0.0276,-0.0291,-0.0295,-0.0237,-0.0235,-0.0233,-0.0225,-0.0233,0,0,0,0,0,-0.0069,-0.0068,-0.0088,-0.008,-0.0088,-0.011,-0.012,-0.0131,-0.0148,-0.0155,-0.0177,-0.0204,-0.0227,-0.0243,-0.0275,-0.0306,-0.0316,-0.0322,-0.032,-0.0318,-0.0322,-0.0364,-0.0365,-0.0352,-0.0352,-0.0352,0,0,-0.0055,-0.0062,-0.0059,-0.0077,-0.0091,-0.0094,-0.0114,-0.0129,-0.0126,-0.0161,-0.0164,-0.0199,-0.0235,-0.026,-0.0276,-0.0283,-0.0314,-0.0321,-0.0318,-0.0323,-0.0366,-0.0367,-0.0368,-0.0354,-0.0353,-0.0353,0,0,-0.0031,-0.0035,-0.0029,-0.005,-0.0075,-0.0087,-0.0091,-0.0119,-0.0125,-0.0145,-0.0161,-0.02,-0.0237,-0.0265,-0.0281,-0.0299,-0.0303,-0.0311,-0.0292,-0.0332,-0.0333,-0.0334,-0.0281,-0.0279,-0.031,-0.031,-0.031,0,-0.001,-0.0001,-0.0034,-0.0038,-0.0038,-0.0077,-0.0067,-0.0086,-0.012,-0.0124,-0.0138,-0.0205,-0.024,-0.0267,-0.0268,-0.0293,-0.0284,-0.0286,-0.0326,-0.0328,-0.033,-0.0277,-0.0275,-0.0307,-0.0307,-0.0307,-0.0308,0,0.0013,0.0019,0.0021,0.0013,-0.0,-0.0002,-0.0027,-0.0041,-0.0053,-0.0075,-0.0115,-0.0175,-0.021,-0.0238,-0.0253,-0.0289,-0.0262,-0.0313,-0.032,-0.0327,-0.027,-0.0269,-0.0302,-0.0303,-0.0304,-0.0305,0,0,0.0077,0.0047,0.0051,0.006,0.0031,0.0031,0.003,0.0019,0.0036,-0.0035,-0.0024,-0.0109,-0.0151,-0.0176,-0.022,-0.0271,-0.0259,-0.0291,-0.0295,-0.0216,-0.0271,-0.0226,-0.022,-0.0313,-0.0314,-0.0315,-0.0199,0,0.0114,0.0133,0.0103,0.0132,0.0147,0.011,0.0119,0.0097,0.0077,0.0072,-0.0019,-0.0038,-0.0121,-0.0132,-0.0197,-0.0243,-0.0263,-0.0281,-0.0298,-0.0296,-0.024,-0.0222,-0.0202,-0.0097,-0.0198,-0.0198,-0.0197,0,0.0154,0.0166,0.0205,0.0209,0.0214,0.0226,0.0248,0.0245,0.021,0.0191,0.0129,0.0068,0.0001,-0.0078,-0.017,-0.017,-0.0212,-0.0262,-0.026,-0.0251,-0.0253,-0.0125,-0.0091,-0.0256,-0.0196,-0.0196,-0.0196,0,0.0235,0.0239,0.0285,0.0285,0.0283,0.0304,0.0308,0.0287,0.0317,0.0272,0.03,0.0172,0.0166,0.0035,-0.0051,-0.011,-0.0123,-0.0216,-0.0208,-0.0201,-0.0206,-0.0199,-0.0325,-0.0285,-0.0285,-0.0285,-0.0286,0,0.0294,0.033,0.0331,0.036,0.0428,0.0388,0.0457,0.0438,0.0444,0.0518,0.0378,0.043,0.0187,0.0154,0.0019,-0.0044,-0.0058,-0.0187,-0.0186,-0.0174,-0.0166,-0.0331,-0.0438,-0.0281,-0.0282,-0.0283,-0.0284,0,0.0375,0.037,0.0431,0.0453,0.0472,0.0525,0.0578,0.0623,0.0616,0.0719,0.0718,0.065,0.0607,0.0417,0.0261,0.0104,-0.0084,-0.0022,0.006,0.0065,-0.0151,-0.0254,-0.0362,-0.0434,-0.0029,-0.0027,-0.0026,0,0.0413,0.0455,0.0525,0.0573,0.0592,0.0662,0.0715,0.0717,0.0791,0.089,0.0968,0.0946,0.0987,0.0794,0.0488,0.0282,0.0069,0.0139,-0.0025,-0.0144,-0.0259,-0.0347,-0.0408,0.0036,0.0038,0.0039,0.0041,0,0.0499,0.0532,0.0586,0.0697,0.077,0.086,0.0949,0.1043,0.1095,0.1213,0.1383,0.1424,0.124,0.1025,0.0702,0.0512,0.0008,0.016,-0.0021,-0.0265,-0.0314,-0.0385,0.0007,0.0053,0.0052,0.0051,0.005,0.005,0.0573,0.0634,0.0716,0.0825,0.0919,0.1066,0.117,0.1296,0.1482,0.1674,0.1705,0.1819,0.1464,0.1017,0.0734,0.0189,0.0135,-0.0029,-0.0141,-0.0215,-0.0323,0.0145,0.0207,0.0207,0.0207,0.0207,0.0206,0,0.0667,0.0733,0.0831,0.0975,0.1106,0.1135,0.1329,0.1455,0.1718,0.1898,0.2055,0.1998,0.1567,0.1066,0.0352,-0.0056,-0.025,-0.0284,-0.045,-0.0501,-0.0124,-0.0165,-0.0112,-0.0112,-0.0112,-0.0111,-0.0111,-0.0111,0.0718,0.0836,0.089,0.1121,0.1225,0.1416,0.1542,0.1743,0.191,0.2172,0.2273,0.2319,0.1998,0.0708,-0.0179,-0.0403,-0.0699,-0.0745,-0.0894,-0.0692,-0.0679,-0.0667,-0.0733,-0.08,-0.0801,-0.1234,-0.1239,-0.1242]}],[{"header":{"parameterUnit":"m.s-1","parameterCategory":2,"la1":30.2991,"la2":30.254,"lo1":-89.0895,"lo2":-89.0444,"dy":0.0017,"dx":0.0017,"nx":28,"ny":28,"refTime":"2024-04-30T03:00:00:Z","depth":"2","parameterNumber":2,"parameterNumberName":"U-component_of_CURRENTS"},"data":[0,0,0,0,0,0,0,0,0,0,0,0,0,0,0,0,0,0,0,0,0,0,0,0,0,0,0,0,0,0,0,0,0,0,0,0,0,0,0,0,0,0,0,0,0,0,0,0,0,0,0,0,0,0,0,0,0,0,0.3338,0.3339,0,0.33,0.3298,0.3297,0.327,0.3271,0.3272,0.3273,0.3301,0.3301,0.33,0,0,0,0,0,0,0,0,0,0,0,0,0,0.3323,0.3323,0.3338,0.3339,0.334,0.33,0.3298,0.3296,0.327,0.3271,0.3272,0.3274,0.3301,0.3301,0.33,0,0,0,0,0,0,0,0,0,0,0,0,0,0.3299,0.3323,0.3338,0.3332,0.3332,0.3301,0.3298,0.3296,0.327,0.3271,0.3273,0.3274,0.3301,0.3301,0.33,0.3266,0,0,0.3299,0.3299,0,0,0,0,0,0,0,0,0.33,0.3297,0.3332,0.3332,0.3333,0.3304,0.3304,0.3294,0.3269,0.3278,0.3273,0.3275,0.3316,0.3314,0.3283,0.3267,0.3268,0.3299,0.3299,0.3299,0.3299,0,0,0,0,0,0,0,0.3302,0.3299,0.3309,0.3333,0.3333,0.331,0.3307,0.33,0.3279,0.3278,0.3279,0.3297,0.3315,0.3283,0.3284,0.3269,0.3299,0.3299,0.3299,0.3298,0.3377,0.338,0,0,0,0,0,0,0.3336,0.3301,0.331,0.3309,0.3336,0.3311,0.3307,0.33,0.3278,0.3279,0.3295,0.3296,0.3283,0.3284,0.3285,0.3367,0.3299,0.3298,0.3298,0.3375,0.3378,0.338,0,0,0,0,0,0,0.3336,0.3336,0.3312,0.3317,0.3314,0.3311,0.3302,0.3299,0.3272,0.3293,0.3293,0.3276,0.3284,0.3285,0.3312,0.3364,0.3298,0.3298,0.3372,0.3376,0.3379,0.3452,0,0,0,0,0,0,0.3335,0.3335,0.334,0.3318,0.3315,0.3332,0.3302,0.3297,0.3287,0.3287,0.3276,0.328,0.3285,0.3313,0.3311,0.3362,0.3297,0.3369,0.3374,0.3378,0.3447,0.3458,0.3467,0,0,0,0,0,0.3334,0.332,0.3339,0.3342,0.3321,0.3336,0.3331,0.3324,0.3285,0.3296,0.3288,0.328,0.3341,0.3313,0.3311,0.3363,0.3367,0.3373,0.3378,0.3442,0.3456,0.3467,0,0,0,0,0,0,0.3291,0.3317,0.3337,0.3327,0.3361,0.3338,0.3336,0.3317,0.3305,0.3304,0.3289,0.3294,0.3371,0.3337,0.3306,0.3403,0.3361,0.3366,0.3411,0.3423,0.3433,0.3437,0.3297,0,0,0,0,0,0.3296,0.3324,0.3337,0.3351,0.335,0.3338,0.3336,0.3343,0.3336,0.3328,0.3344,0.3352,0.3385,0.3377,0.3429,0.3427,0.3427,0.3468,0.3478,0.3486,0.3492,0.3565,0.3583,0.3398,0.3398,0.3398,0,0,0.3291,0.3316,0.3329,0.3352,0.3354,0.3368,0.3336,0.335,0.3368,0.3336,0.3371,0.3416,0.3408,0.3466,0.349,0.3433,0.3532,0.3493,0.35,0.3501,0.3573,0.3591,0.3607,0.3401,0.3401,0.34,0,0,0.3295,0.3305,0.3323,0.3343,0.3384,0.3397,0.3403,0.3412,0.3415,0.3453,0.3466,0.3501,0.354,0.3543,0.3537,0.3608,0.3626,0.3664,0.3664,0.3736,0.3752,0.3766,0.3754,0.3766,0.3617,0.3617,0.3618,0,0.3297,0.3307,0.3334,0.3346,0.3366,0.3406,0.3414,0.3425,0.3464,0.3485,0.3491,0.3589,0.3561,0.3603,0.3634,0.3627,0.3676,0.3613,0.375,0.3764,0.3777,0.3761,0.3774,0.3622,0.3621,0.3621,0.362,0,0.3287,0.3314,0.3318,0.337,0.3398,0.3421,0.3456,0.3518,0.3543,0.3565,0.3668,0.3667,0.3701,0.3723,0.3681,0.3776,0.3785,0.3796,0.3715,0.38,0.3777,0.3789,0.3628,0.3626,0.3625,0.3624,0,0,0.3247,0.3305,0.3308,0.3338,0.3405,0.3423,0.3496,0.356,0.3592,0.3686,0.3724,0.3775,0.3799,0.3794,0.3792,0.3829,0.3906,0.3852,0.3854,0.3832,0.4061,0.396,0.3962,0.3996,0.4,0.4002,0.3995,0,0.324,0.3269,0.3302,0.3356,0.337,0.3448,0.3503,0.3581,0.3648,0.3718,0.3754,0.3816,0.3814,0.384,0.3883,0.3914,0.3953,0.3905,0.3989,0.3988,0.3885,0.3978,0.3676,0.364,0.4006,0.4008,0.4009,0,0.3196,0.3242,0.3265,0.3356,0.336,0.3409,0.3521,0.3575,0.3689,0.3748,0.3843,0.3883,0.392,0.393,0.4019,0.4021,0.405,0.408,0.4081,0.3973,0.3913,0.3624,0.3647,0.4028,0.4027,0.4025,0.4024,0,0.3146,0.3207,0.3235,0.3254,0.3359,0.3403,0.3475,0.3589,0.3636,0.3777,0.3848,0.3929,0.3966,0.4055,0.4074,0.4078,0.4202,0.4177,0.4123,0.4111,0.3854,0.3815,0.4295,0.4295,0.4295,0.4295,0.4295,0,0.3113,0.3136,0.3212,0.3233,0.328,0.3358,0.3425,0.3536,0.3651,0.3709,0.3846,0.3912,0.4033,0.4098,0.4117,0.4138,0.4219,0.4142,0.4129,0.3865,0.383,0.4171,0.4157,0.4295,0.4295,0.4295,0.4295,0,0.3042,0.3096,0.313,0.3228,0.326,0.3286,0.3402,0.344,0.3602,0.3694,0.3748,0.391,0.4001,0.4096,0.4197,0.4163,0.4198,0.4207,0.3849,0.3795,0.4033,0.4023,0.4092,0.4089,0.4086,0.4084,0.4082,0,0.3003,0.3011,0.3096,0.3114,0.3157,0.3218,0.3256,0.341,0.3457,0.367,0.3693,0.3853,0.3915,0.4016,0.402,0.404,0.4171,0.3774,0.3706,0.4046,0.4025,0.4019,0.4013,0.3364,0.3356,0.335,0.3345,0,0.2921,0.2943,0.296,0.3013,0.3048,0.3095,0.3171,0.3198,0.3366,0.346,0.3564,0.3634,0.3771,0.3653,0.3733,0.3703,0.373,0.3648,0.4131,0.3476,0.3363,0.3342,0.3359,0.329,0.3296,0.33,0.3302,0.3305,0.2823,0.2813,0.284,0.2861,0.291,0.295,0.2927,0.3005,0.3053,0.3143,0.3309,0.3334,0.3403,0.3344,0.3256,0.3205,0.3461,0.3308,0.3325,0.3349,0.3282,0.3173,0.3045,0.3048,0.3052,0.3055,0.3057,0,0.2673,0.2692,0.2702,0.2711,0.2688,0.2802,0.2833,0.2776,0.2748,0.2877,0.2943,0.2766,0.2718,0.2796,0.2636,0.2644,0.2603,0.2532,0.2454,0.2512,0.2563,0.2453,0.1997,0.1993,0.199,0.1987,0,0,0.2604,0.2546,0.255,0.2472,0.2497,0.2433,0.2424,0.2389,0.2423,0.2381,0.2377,0.2602,0.2715,0.232,0.228,0.2103,0.228,0.2019,0.2878,0.2844,0.289,0.3031,0.2931,0,0,0,0,0]},{"header":{"parameterUnit":"m.s-1","parameterCategory":2,"la1":30.2991,"la2":30.254,"lo1":-89.0895,"lo2":-89.0444,"dy":0.0017,"dx":0.0017,"nx":28,"ny":28,"refTime":"2024-04-30T03:00:00:Z","depth":"2","parameterNumber":3,"parameterNumberName":"V-component_of_CURRENTS"},"data":[0,0,0,0,0,0,0,0,0,0,0,0,0,0,0,0,0,0,0,0,0,0,0,0,0,0,0,0,0,0,0,0,0,0,0,0,0,0,0,0,0,0,0,0,0,0,0,0,0,0,0,0,0,0,0,0,0,0,0.0191,0.0191,0,0.0152,0.0152,0.0151,0.0125,0.0124,0.0124,0.0124,0.0062,0.006,0.0059,0,0,0,0,0,0,0,0,0,0,0,0,0,0.0172,0.0173,0.0191,0.0191,0.019,0.0152,0.0152,0.0151,0.0125,0.0124,0.0124,0.0124,0.0062,0.006,0.0059,0,0,0,0,0,0,0,0,0,0,0,0,0,0.0162,0.0173,0.0191,0.0172,0.017,0.0152,0.0152,0.0151,0.0125,0.0124,0.0124,0.0124,0.0063,0.0061,0.0058,0.0051,0,0,0.0052,0.0051,0,0,0,0,0,0,0,0,0.0162,0.0162,0.0176,0.0174,0.0171,0.0143,0.0122,0.0116,0.0125,0.0142,0.0124,0.0124,0.0087,0.0083,0.0076,0.0048,0.0045,0.0051,0.005,0.0049,0.0049,0,0,0,0,0,0,0,0.0163,0.0163,0.0176,0.0175,0.0172,0.0141,0.014,0.0121,0.0116,0.0141,0.0139,0.0134,0.0085,0.0079,0.0075,0.0044,0.0051,0.005,0.0048,0.0047,0.002,0.0021,0,0,0,0,0,0,0.0172,0.0165,0.0177,0.0175,0.0166,0.0142,0.0141,0.0152,0.0117,0.0111,0.0134,0.0133,0.0083,0.0077,0.0072,0.0079,0.0049,0.0047,0.0046,0.002,0.0021,0.0021,0,0,0,0,0,0,0.0172,0.0174,0.0179,0.0167,0.0166,0.0143,0.0156,0.0152,0.0151,0.0113,0.0106,0.0139,0.0082,0.0075,0.0065,0.0076,0.0046,0.0044,0.0019,0.002,0.0021,0.0082,0,0,0,0,0,0,0.0172,0.0175,0.0187,0.0169,0.0167,0.0173,0.0156,0.0151,0.0148,0.0146,0.0114,0.0108,0.0081,0.0069,0.0063,0.0072,0.0042,0.0018,0.002,0.0021,0.0079,0.0085,0.009,0,0,0,0,0,0.0172,0.0198,0.0188,0.0189,0.0185,0.0174,0.017,0.0152,0.0149,0.015,0.0134,0.0109,0.0072,0.0068,0.0061,0.007,0.0018,0.0019,0.002,0.0077,0.0084,0.0089,0,0,0,0,0,0,0.0208,0.0197,0.0186,0.0211,0.0192,0.0169,0.0176,0.016,0.0149,0.0151,0.0117,0.011,0.0096,0.008,0.0077,0.0066,0.0041,0.0041,0.0086,0.0092,0.0097,0.0116,0.0041,0,0,0,0,0,0.0218,0.0223,0.0209,0.0223,0.0224,0.0201,0.0195,0.018,0.0166,0.0161,0.0136,0.0115,0.0095,0.0094,0.0064,0.0069,0.0046,0.0069,0.0075,0.0079,0.0091,0.0064,0.0068,0.0026,0.0026,0.0026,0,0,0.0236,0.0228,0.0232,0.0228,0.0219,0.023,0.0198,0.0196,0.0204,0.0156,0.0162,0.0123,0.0096,0.009,0.0085,0.0083,0.008,0.0081,0.0085,0.0094,0.0066,0.007,0.0074,0.0027,0.0026,0.0026,0,0,0.0271,0.0271,0.0288,0.0281,0.0266,0.0252,0.0256,0.0236,0.023,0.0222,0.0189,0.0171,0.0138,0.0128,0.012,0.0143,0.0096,0.0122,0.018,0.0155,0.0158,0.016,0.0138,0.0138,0.0141,0.0141,0.0141,0,0.0291,0.0316,0.029,0.0307,0.0314,0.0271,0.03,0.0287,0.0259,0.0261,0.0232,0.0188,0.0163,0.0171,0.0175,0.0156,0.0126,0.0159,0.0162,0.0164,0.0166,0.0142,0.0141,0.0144,0.0144,0.0144,0.0143,0,0.034,0.036,0.0375,0.0382,0.0383,0.0398,0.0381,0.0373,0.0352,0.0333,0.0316,0.027,0.0254,0.0234,0.0212,0.0215,0.0184,0.0158,0.0147,0.0174,0.0147,0.0145,0.0149,0.0148,0.0147,0.0146,0,0,0.0391,0.0408,0.0414,0.0435,0.0429,0.0439,0.0452,0.0457,0.0478,0.0422,0.0444,0.0395,0.0358,0.0346,0.0305,0.0284,0.0269,0.0231,0.0228,0.0213,0.0204,0.0172,0.0166,0.0231,0.0231,0.0231,0.0181,0,0.0441,0.0497,0.0487,0.054,0.0576,0.0546,0.0569,0.0559,0.0538,0.0541,0.0485,0.0476,0.0406,0.0396,0.0364,0.0296,0.0266,0.0285,0.0178,0.0176,0.0146,0.0165,0.0185,0.014,0.0179,0.0179,0.0179,0,0.0498,0.0529,0.0602,0.0635,0.065,0.0666,0.0697,0.0714,0.0698,0.0679,0.0645,0.059,0.0561,0.0487,0.0389,0.0397,0.0308,0.0241,0.0237,0.0187,0.0141,0.0119,0.0135,0.0175,0.0176,0.0176,0.0176,0,0.0557,0.0607,0.0672,0.0686,0.0719,0.0739,0.0753,0.0755,0.079,0.0768,0.0775,0.0706,0.0687,0.0567,0.0426,0.0406,0.0301,0.0264,0.0146,0.0143,0.0132,0.0127,0.018,0.018,0.018,0.018,0.018,0,0.0619,0.0666,0.0703,0.0739,0.0814,0.0812,0.0879,0.0876,0.0897,0.0955,0.0858,0.087,0.07,0.0613,0.0467,0.0311,0.0335,0.0162,0.013,0.0153,0.0151,0.0158,0.0156,0.0178,0.0178,0.0179,0.0179,0,0.0669,0.0699,0.0771,0.0822,0.0844,0.0899,0.0958,0.1009,0.1012,0.1083,0.1081,0.1005,0.0893,0.0709,0.0526,0.0382,0.0225,0.0153,0.0191,0.0164,0.0073,0.0075,0.0036,0.0034,0.0033,0.0032,0.0031,0,0.0698,0.0745,0.0833,0.0885,0.0907,0.0981,0.1041,0.1066,0.1129,0.117,0.1218,0.1122,0.1071,0.0787,0.0518,0.0264,0.0215,0.0094,0.0058,0.0087,0.006,0.0064,0.0067,0.0068,0.0068,0.0067,0.0067,0,0.0747,0.0781,0.0847,0.0958,0.1028,0.112,0.1202,0.1266,0.1324,0.137,0.1418,0.1378,0.1116,0.0855,0.049,0.0312,0.0139,0.0076,0.0105,0.0099,0.0112,0.0087,0.0091,0.0063,0.0064,0.0064,0.0064,0.0064,0.0785,0.0835,0.0926,0.1028,0.1127,0.1245,0.1312,0.1407,0.1514,0.159,0.1564,0.1503,0.1217,0.075,0.0437,0.0102,0.0125,-0.0004,-0.0001,0.0003,0.0013,0.0023,-0.0041,-0.0041,-0.0041,-0.0041,-0.0042,0,0.0826,0.0885,0.0983,0.111,0.1218,0.1266,0.1416,0.1483,0.1601,0.1673,0.1695,0.1414,0.1122,0.0783,0.0294,0.0007,-0.0012,-0.0099,-0.0055,-0.0049,-0.0044,-0.0035,-0.0102,-0.0103,-0.0104,-0.0105,0,0,0.0849,0.0941,0.0988,0.116,0.1252,0.1389,0.147,0.1578,0.1654,0.17,0.1669,0.1621,0.1224,0.0856,0.0465,0.0178,0.0127,0.0116,0.0198,0.0303,0.0311,0.0046,0.007,0,0,0,0,0]}],[{"header":{"parameterUnit":"m.s-1","parameterCategory":2,"la1":30.2991,"la2":30.254,"lo1":-89.0895,"lo2":-89.0444,"dy":0.0017,"dx":0.0017,"nx":28,"ny":28,"refTime":"2024-04-30T03:00:00:Z","depth":"4","parameterNumber":2,"parameterNumberName":"U-component_of_CURRENTS"},"data":[0,0,0,0,0,0,0,0,0,0,0,0,0,0,0,0,0,0,0,0,0,0,0,0,0,0,0,0,0,0,0,0,0,0,0,0,0,0,0,0,0,0,0,0,0,0,0,0,0,0,0,0,0,0,0,0,0,0,0.18,0.1801,0,0.188,0.1881,0.1881,0.1935,0.1936,0.1937,0.1938,0.1997,0.1998,0.1998,0,0,0,0,0,0,0,0,0,0,0,0,0,0.1677,0.1679,0.18,0.1801,0.1803,0.188,0.1881,0.1881,0.1935,0.1936,0.1937,0.1938,0.1997,0.1997,0.1998,0,0,0,0,0,0,0,0,0,0,0,0,0,0.1736,0.1679,0.1799,0.1843,0.1849,0.188,0.1881,0.1881,0.1935,0.1936,0.1938,0.1939,0.1996,0.1997,0.1998,0.1977,0,0,0.2002,0.2002,0,0,0,0,0,0,0,0,0.1732,0.1739,0.1835,0.184,0.1846,0.1904,0.186,0.1914,0.1934,0.1896,0.1938,0.194,0.1967,0.197,0.1974,0.198,0.1982,0.2002,0.2002,0.2003,0.2003,0,0,0,0,0,0,0,0.1728,0.1736,0.1825,0.1837,0.1844,0.1854,0.1864,0.187,0.1917,0.1899,0.1905,0.1923,0.1969,0.1973,0.1976,0.1983,0.2002,0.2003,0.2003,0.2004,0.2076,0.2077,0,0,0,0,0,0,0.173,0.1732,0.1823,0.1828,0.1798,0.1856,0.1866,0.1879,0.1918,0.1927,0.1922,0.1925,0.197,0.1975,0.1978,0.2064,0.2003,0.2004,0.2004,0.2075,0.2076,0.2077,0,0,0,0,0,0,0.1727,0.1737,0.182,0.1787,0.1799,0.1857,0.1871,0.188,0.192,0.1936,0.1944,0.1957,0.1972,0.1977,0.201,0.2062,0.2004,0.2005,0.2073,0.2075,0.2077,0.2165,0,0,0,0,0,0,0.1723,0.1735,0.1756,0.1787,0.1802,0.1836,0.1871,0.1881,0.193,0.1936,0.1968,0.1973,0.1973,0.2008,0.2011,0.2063,0.2006,0.2071,0.2074,0.2076,0.216,0.217,0.2178,0,0,0,0,0,0.1718,0.1729,0.1756,0.1768,0.1824,0.1836,0.1843,0.1885,0.193,0.193,0.1972,0.1974,0.2026,0.2009,0.2012,0.2066,0.207,0.2073,0.2076,0.2157,0.2168,0.2177,0,0,0,0,0,0,0.169,0.1737,0.1767,0.1795,0.1818,0.1848,0.1873,0.1903,0.1936,0.1961,0.1982,0.1988,0.2043,0.2031,0.2013,0.2092,0.2052,0.2055,0.2112,0.2123,0.2131,0.2126,0.2007,0,0,0,0,0,0.1694,0.1721,0.1754,0.1784,0.1801,0.1846,0.1868,0.189,0.1923,0.1942,0.1981,0.2018,0.2049,0.2068,0.2084,0.2117,0.2122,0.2155,0.2163,0.2171,0.2168,0.22,0.2211,0.2087,0.2087,0.2087,0,0,0.1696,0.1729,0.1746,0.1781,0.1816,0.1844,0.1862,0.1896,0.1935,0.1941,0.2024,0.205,0.2064,0.2113,0.2136,0.2115,0.2218,0.2174,0.2181,0.2174,0.2204,0.2216,0.2227,0.2089,0.2089,0.2088,0,0,0.1701,0.1742,0.1762,0.1785,0.1834,0.1857,0.1875,0.1924,0.1962,0.2021,0.2053,0.2101,0.2155,0.2174,0.2191,0.2249,0.2263,0.2271,0.2313,0.2345,0.2356,0.2365,0.2428,0.2442,0.2274,0.2274,0.2275,0,0.1706,0.174,0.1767,0.1794,0.1832,0.1872,0.1902,0.1938,0.1998,0.2039,0.2058,0.2169,0.2183,0.2244,0.2274,0.2272,0.2302,0.2277,0.2358,0.2366,0.2374,0.2436,0.245,0.2279,0.2279,0.2278,0.2278,0,0.1715,0.1761,0.1778,0.1837,0.1867,0.1897,0.195,0.1999,0.207,0.2115,0.2206,0.2232,0.2297,0.2319,0.2321,0.2393,0.2404,0.2369,0.2334,0.2393,0.2454,0.2467,0.2286,0.2284,0.2283,0.2281,0,0,0.1689,0.1768,0.1783,0.1818,0.1896,0.1911,0.1994,0.2061,0.213,0.2201,0.2288,0.2354,0.2388,0.2406,0.2422,0.2449,0.255,0.2444,0.2443,0.2511,0.2661,0.2495,0.2494,0.2538,0.254,0.2541,0.2697,0,0.1699,0.175,0.1795,0.1863,0.1897,0.1966,0.204,0.211,0.2189,0.2278,0.233,0.2417,0.2417,0.2467,0.2497,0.2529,0.2582,0.2513,0.2588,0.2591,0.2439,0.2501,0.2547,0.2707,0.271,0.2712,0.2713,0,0.1692,0.1736,0.1798,0.1888,0.1912,0.1966,0.2087,0.2157,0.228,0.2345,0.2435,0.2485,0.2566,0.2544,0.2646,0.261,0.2652,0.2669,0.2674,0.2488,0.2446,0.2624,0.2737,0.2735,0.2733,0.2732,0.273,0,0.165,0.1733,0.1787,0.1819,0.1929,0.1988,0.2063,0.2191,0.2265,0.2403,0.247,0.2564,0.2639,0.2683,0.2746,0.2714,0.2844,0.2795,0.2695,0.2687,0.2753,0.274,0.2872,0.2871,0.2871,0.2871,0.287,0,0.1628,0.1675,0.1776,0.181,0.1885,0.1981,0.2092,0.2174,0.2314,0.2402,0.2512,0.2582,0.2678,0.2763,0.2789,0.2788,0.2892,0.2713,0.2705,0.2792,0.2782,0.2765,0.2751,0.2877,0.2875,0.2874,0.2873,0,0.1574,0.1643,0.1707,0.1829,0.187,0.1933,0.2094,0.2159,0.2316,0.2432,0.2485,0.2635,0.2737,0.2821,0.2915,0.2838,0.2853,0.2838,0.2976,0.2973,0.2671,0.266,0.2719,0.2714,0.271,0.2706,0.2704,0,0.1543,0.1577,0.1704,0.1736,0.1799,0.1912,0.198,0.2145,0.2216,0.2443,0.2471,0.2642,0.2725,0.2737,0.2825,0.287,0.2836,0.2836,0.2692,0.2664,0.2652,0.2647,0.2641,0.2697,0.2696,0.2695,0.2694,0,0.1489,0.1553,0.1606,0.1679,0.1745,0.1822,0.1938,0.1972,0.2169,0.2319,0.2409,0.2472,0.2586,0.2642,0.271,0.2728,0.2809,0.2792,0.2799,0.2664,0.2638,0.263,0.2629,0.268,0.2682,0.2683,0.2684,0,0.1443,0.1464,0.1541,0.1589,0.1668,0.1705,0.1781,0.1867,0.1966,0.2198,0.2233,0.241,0.2571,0.2575,0.2632,0.2635,0.2577,0.2471,0.2493,0.251,0.236,0.2293,0.2228,0,0,0,0,0,0.1382,0.1395,0.1435,0.1479,0.1555,0.161,0.1733,0.1817,0.1996,0.2001,0.2115,0.2213,0.2295,0.2388,0.2347,0.2528,0.2581,0.2467,0.2468,0.2602,0.2618,0.2456,0,0,0,0,0,0,0.1335,0.1377,0.1396,0.1385,0.14,0.1475,0.1551,0.1668,0.1688,0.1876,0.1933,0.2081,0.2193,0.2305,0.2309,0.2335,0.2288,0.2583,0.2577,0.2592,0.2607,0.262,0.246,0,0,0,0,0]},{"header":{"parameterUnit":"m.s-1","parameterCategory":2,"la1":30.2991,"la2":30.254,"lo1":-89.0895,"lo2":-89.0444,"dy":0.0017,"dx":0.0017,"nx":28,"ny":28,"refTime":"2024-04-30T03:00:00:Z","depth":"4","parameterNumber":3,"parameterNumberName":"V-component_of_CURRENTS"},"data":[0,0,0,0,0,0,0,0,0,0,0,0,0,0,0,0,0,0,0,0,0,0,0,0,0,0,0,0,0,0,0,0,0,0,0,0,0,0,0,0,0,0,0,0,0,0,0,0,0,0,0,0,0,0,0,0,0,0,0.0257,0.0257,0,0.0232,0.0232,0.0232,0.0223,0.0223,0.0223,0.0223,0.0193,0.0192,0.0192,0,0,0,0,0,0,0,0,0,0,0,0,0,0.0255,0.0256,0.0257,0.0257,0.0256,0.0232,0.0232,0.0232,0.0223,0.0223,0.0223,0.0223,0.0193,0.0192,0.0192,0,0,0,0,0,0,0,0,0,0,0,0,0,0.0247,0.0256,0.0257,0.0248,0.0247,0.0232,0.0232,0.0232,0.0223,0.0223,0.0223,0.0223,0.0194,0.0193,0.0191,0.0184,0,0,0.0188,0.0187,0,0,0,0,0,0,0,0,0.0247,0.0247,0.025,0.0249,0.0248,0.023,0.022,0.0215,0.0223,0.0233,0.0223,0.0223,0.0205,0.0202,0.0199,0.0182,0.0181,0.0188,0.0187,0.0186,0.0186,0,0,0,0,0,0,0,0.0248,0.0247,0.0248,0.025,0.0248,0.0231,0.0231,0.0219,0.0219,0.0232,0.0231,0.0227,0.0204,0.02,0.0198,0.0181,0.0188,0.0187,0.0186,0.0185,0.0181,0.0181,0,0,0,0,0,0,0.0252,0.0248,0.0249,0.0247,0.0247,0.0232,0.0231,0.0236,0.022,0.0217,0.0227,0.0227,0.0202,0.0199,0.0197,0.0216,0.0186,0.0185,0.0185,0.018,0.0181,0.0181,0,0,0,0,0,0,0.0252,0.0252,0.025,0.0246,0.0244,0.0232,0.0238,0.0236,0.0239,0.0216,0.0213,0.0233,0.0202,0.0199,0.02,0.0214,0.0185,0.0184,0.0179,0.018,0.0181,0.0235,0,0,0,0,0,0,0.0252,0.0253,0.0261,0.0247,0.0245,0.0257,0.0238,0.0235,0.0236,0.0235,0.022,0.0217,0.0202,0.0202,0.0198,0.0212,0.0183,0.0179,0.018,0.0181,0.0233,0.0238,0.0242,0,0,0,0,0,0.0252,0.0269,0.0262,0.0262,0.0256,0.0258,0.0256,0.0247,0.0236,0.0248,0.0234,0.0218,0.0206,0.0201,0.0197,0.021,0.0178,0.0179,0.0181,0.0231,0.0237,0.0242,0,0,0,0,0,0,0.0274,0.0269,0.0261,0.0276,0.0272,0.0257,0.0264,0.0253,0.025,0.0252,0.0225,0.0222,0.0228,0.0211,0.0206,0.0212,0.0189,0.019,0.0228,0.0234,0.0239,0.0254,0.0182,0,0,0,0,0,0.0282,0.0292,0.0283,0.0294,0.0295,0.0279,0.0278,0.0274,0.0266,0.0265,0.0252,0.0238,0.0229,0.0226,0.0218,0.022,0.0193,0.0225,0.023,0.0234,0.0244,0.0221,0.0224,0.0186,0.0186,0.0186,0,0,0.0296,0.029,0.0299,0.0299,0.0294,0.0307,0.028,0.0289,0.0299,0.0262,0.0274,0.0257,0.0234,0.024,0.0241,0.0228,0.0228,0.0236,0.024,0.0248,0.0223,0.0226,0.023,0.0187,0.0186,0.0186,0,0,0.0324,0.0323,0.0341,0.0341,0.0339,0.0334,0.034,0.0332,0.033,0.0335,0.0312,0.0305,0.029,0.0279,0.0269,0.0294,0.0255,0.029,0.0326,0.0303,0.0306,0.0308,0.0264,0.0262,0.0291,0.0291,0.0291,0,0.0339,0.036,0.0347,0.036,0.0368,0.035,0.0375,0.037,0.0363,0.0365,0.0349,0.0331,0.0309,0.0313,0.0321,0.0306,0.0279,0.0306,0.031,0.0311,0.0313,0.0267,0.0264,0.0294,0.0293,0.0293,0.0293,0,0.0375,0.0395,0.0407,0.042,0.0428,0.0449,0.0441,0.0449,0.044,0.0428,0.0431,0.04,0.0388,0.0378,0.0355,0.036,0.0331,0.0319,0.0296,0.032,0.027,0.0266,0.0298,0.0297,0.0296,0.0295,0,0,0.0406,0.0431,0.0438,0.0457,0.0465,0.0479,0.0498,0.0511,0.0526,0.0507,0.0518,0.0494,0.0471,0.0458,0.0428,0.0407,0.0382,0.0372,0.0369,0.0329,0.0316,0.0278,0.0269,0.0372,0.0372,0.0372,0.027,0,0.0442,0.0488,0.0489,0.054,0.0567,0.056,0.0583,0.0588,0.0581,0.0585,0.0547,0.0546,0.0502,0.0499,0.047,0.0409,0.0377,0.041,0.0297,0.0293,0.0259,0.0266,0.0372,0.0267,0.0266,0.0265,0.0265,0,0.0477,0.0506,0.0567,0.0608,0.0621,0.0647,0.0683,0.0701,0.0695,0.0686,0.0669,0.0631,0.0596,0.0557,0.046,0.0482,0.0406,0.0352,0.0347,0.0294,0.025,0.0241,0.0257,0.0258,0.0258,0.0259,0.0259,0,0.0508,0.0559,0.0615,0.0629,0.0673,0.07,0.0724,0.0735,0.0761,0.0752,0.0756,0.0702,0.0676,0.0588,0.046,0.0462,0.0344,0.0329,0.022,0.0215,0.0255,0.0253,0.0262,0.0263,0.0263,0.0263,0.0263,0,0.0541,0.0585,0.0638,0.0668,0.074,0.0749,0.0811,0.0825,0.0845,0.0876,0.0815,0.0811,0.0685,0.0594,0.0479,0.0331,0.0351,0.0227,0.0193,0.0277,0.0279,0.025,0.025,0.0259,0.026,0.0261,0.0262,0,0.056,0.0597,0.066,0.0725,0.0758,0.0805,0.0875,0.0912,0.0924,0.0961,0.0961,0.0889,0.077,0.0623,0.0465,0.0355,0.022,0.016,0.0246,0.0218,0.0098,0.0102,0.0034,0.0032,0.003,0.0029,0.0028,0,0.0572,0.061,0.0706,0.0754,0.0787,0.086,0.0917,0.0957,0.0992,0.1005,0.102,0.0922,0.0848,0.0593,0.0438,0.0204,0.0171,0.0085,0.0107,0.0105,0.0078,0.0085,0.0091,0.0025,0.0024,0.0024,0.0024,0,0.0586,0.0623,0.068,0.0785,0.0857,0.0938,0.1012,0.1041,0.1082,0.1094,0.1059,0.0928,0.0785,0.0589,0.0398,0.0236,0.0136,0.0067,0.0069,0.0089,0.0093,0.0069,0.0077,0.0018,0.0018,0.0019,0.0019,0,0.0598,0.0631,0.0712,0.0801,0.09,0.0984,0.1021,0.1059,0.11,0.1105,0.1089,0.0943,0.0865,0.0604,0.0436,0.0263,0.0221,0.0159,0.0157,0.0161,0.0227,0.0251,0.0199,0,0,0,0,0,0.0602,0.0639,0.0719,0.0817,0.0915,0.0978,0.1075,0.1102,0.1135,0.1117,0.1106,0.0973,0.0722,0.0619,0.044,0.0393,0.0183,0.0175,0.0108,-0.0015,-0.0009,0.0043,0,0,0,0,0,0,0.06,0.0672,0.0708,0.0817,0.0883,0.0996,0.106,0.1089,0.1075,0.1081,0.0955,0.0906,0.0667,0.082,0.0428,0.0378,0.0305,0.0067,0.0062,-0.0019,-0.0013,-0.0008,0.0048,0,0,0,0,0]}]]